Location: *
(55.6049°S, 142.1985°W)
Time: 14:52:18
(UTC+00:00)

Cosmos 1726 Rocket - Pass Details

Date: 12 May 2021
Orbit: 604 x 628 km, 82.5° (Epoch: 17 June)

Event Time Altitude Azimuth Distance (km) Brightness Sun altitude
Exits shadow 14:32:12 46° 334° (NNW) 866 4.0 -22.4°
Maximum altitude 14:33:30 77° 257° (WSW) 665 3.5 -22.3°
Drops below altitude 10° 14:38:04 10° 170° (S) 2,051 6.3 -21.6°
Sets 14:40:20 0° 168° (SSE) 2,964 7.2 -21.3°
